Location: Vale
(35.4830°N, 81.3830°W)
Time: 09:30:28
(UTC-04:00)

Amateur Radio Satellites - All Passes

Search period start: 31 July 2014 09:00
Search period end: 01 August 2014 09:00
Location: Vale, 35.4830°N, 81.3830°W

Satellite Date Start Highest point End Downlink Frequencies (MHz)
Time Altitude Azimuth
PCSat 31 Jul 09:06:53 09:10:36 18° 50° (NE) 09:14:17 145.825 MHz
Sapphire 31 Jul 10:15:51 10:21:15 64° 62° (ENE) 10:26:36 437.095 MHz 1200 baud AX-25 AFSK
UKube-1 31 Jul 10:22:47 10:26:55 42° 99° (E) 10:31:01 145.840 MHz, 145.915 MHz
HO-68 31 Jul 10:23:12 10:30:19 65° 103° (ESE) 10:37:22 435.675 MHz FM
PCSat 31 Jul 10:49:04 10:54:24 60° 247° (WSW) 10:59:42 145.825 MHz
Oscar 11 31 Jul 11:05:03 11:09:24 70° 101° (ESE) 11:13:43 145.825 FM, Beacon 2401.500 USB
FUNcube-1 31 Jul 11:33:32 11:37:37 49° 100° (E) 11:41:45 145.950 - 145.970 MHz USB
RS-15 31 Jul 11:49:39 11:56:43 19° 101° (E) 12:03:38 29.354 - 29.394 USB, Beacon 29.352 USB
UKube-1 31 Jul 12:00:17 12:02:44 15° 294° (WNW) 12:05:11 145.840 MHz, 145.915 MHz
Sapphire 31 Jul 12:01:15 12:04:03 14° 257° (WSW) 12:06:50 437.095 MHz 1200 baud AX-25 AFSK
SO-50 31 Jul 12:04:05 12:08:20 47° 115° (ESE) 12:12:40 436.795 FM
HO-68 31 Jul 12:12:12 12:17:22 22° 299° (WNW) 12:22:32 435.675 MHz FM
JAS-1B 31 Jul 13:02:06 13:05:11 12° 49° (NE) 13:08:18 435.800 - 435.900 CW/SSB
Oscar 19 31 Jul 13:05:02 13:08:11 17° 65° (ENE) 13:11:20 437.125 CW, 437.150 USB
FUNcube-1 31 Jul 13:12:03 13:13:35 12° 294° (WNW) 13:15:07 145.950 - 145.970 MHz USB
Oscar 16 31 Jul 13:32:17 13:36:47 33° 70° (ENE) 13:41:19 437.025 USB, Beacon 2401.1428
SO-50 31 Jul 13:46:07 13:49:09 18° 312° (NW) 13:52:13 436.795 FM
UOSAT-12 31 Jul 13:50:26 13:54:42 40° 114° (ESE) 13:59:04 437.025 FM, 437.400 FM
KITSAT 1 31 Jul 13:53:51 13:58:55 17° 40° (NE) 14:03:58 435.175 FM
RS-15 31 Jul 13:56:21 14:07:35 88° 298° (WNW) 14:18:34 29.354 - 29.394 USB, Beacon 29.352 USB
ITAMSAT 1 31 Jul 13:58:59 14:03:14 26° 68° (ENE) 14:07:30 435.822 SSB
Uribyol 2 31 Jul 14:17:02 14:21:53 41° 71° (ENE) 14:26:44 436.500 FM
AO-27 31 Jul 14:18:12 14:23:03 41° 71° (ENE) 14:27:55 436.795 MHz FM
TMSAT-1 31 Jul 14:31:43 14:34:44 16° 64° (ENE) 14:37:46 436.925 FM
AO-Echo 31 Jul 14:36:58 14:42:13 65° 74° (ENE) 14:47:29 ?
Oscar 19 31 Jul 14:42:06 14:47:04 51° 260° (W) 14:52:03 437.125 CW, 437.150 USB
JAS-1B 31 Jul 14:44:43 14:53:20 56° 68° (ENE) 15:02:51 435.800 - 435.900 CW/SSB
Gurwin Techsat 1B 31 Jul 14:55:43 15:00:33 37° 70° (ENE) 15:05:24 435.225 FM
Oscar 16 31 Jul 15:11:58 15:16:07 25° 264° (W) 15:20:18 437.025 USB, Beacon 2401.1428
Saudisat 1A 31 Jul 15:21:22 15:23:02 12° 45° (NE) 15:24:41 436.775 MHz
UOSAT-12 31 Jul 15:31:30 15:35:00 21° 311° (NW) 15:38:33 437.025 FM, 437.400 FM
AO-7 31 Jul 15:36:51 15:43:33 28° 59° (ENE) 15:50:16 29.400 - 29.500 MHz
ITAMSAT 1 31 Jul 15:37:53 15:42:33 33° 262° (W) 15:47:14 435.822 SSB
KITSAT 1 31 Jul 15:47:37 15:55:43 76° 61° (ENE) 16:03:45 435.175 FM
Uribyol 2 31 Jul 15:57:43 16:01:28 20° 265° (W) 16:05:15 436.500 FM
AO-27 31 Jul 15:58:50 16:02:40 21° 265° (W) 16:06:31 436.795 MHz FM
TMSAT-1 31 Jul 16:08:54 16:14:07 59° 259° (W) 16:19:21 436.925 FM
RS-15 31 Jul 16:12:54 16:21:33 26° 322° (NW) 16:30:11 29.354 - 29.394 USB, Beacon 29.352 USB
AO-Echo 31 Jul 16:18:51 16:21:20 13° 269° (W) 16:23:50 ?
JAS-1B 31 Jul 16:36:13 16:44:02 35° 267° (W) 16:52:40 435.800 - 435.900 CW/SSB
Gurwin Techsat 1B 31 Jul 16:36:23 16:40:33 23° 265° (W) 16:44:45 435.225 FM
Uosat F 31 Jul 16:36:46 16:41:41 56° 73° (ENE) 16:46:37 435.120 FM
Saudisat 1A 31 Jul 16:58:44 17:03:08 77° 242° (WSW) 17:07:30 436.775 MHz
JAS-2 31 Jul 17:09:27 17:13:06 14° 60° (ENE) 17:16:38 435.800 - 435.900 CW/SSB, 435.910 FM
AO-7 31 Jul 17:27:30 17:35:44 62° 256° (WSW) 17:44:01 29.400 - 29.500 MHz
OPAL 31 Jul 17:41:05 17:46:13 90° 281° (WNW) 17:51:22 ?
KITSAT 1 31 Jul 17:44:52 17:50:12 20° 258° (WSW) 17:55:32 435.175 FM
Uosat F 31 Jul 18:18:10 18:20:46 14° 267° (W) 18:23:22 435.120 FM
RS-15 31 Jul 18:36:21 18:39:51 12° 359° (N) 18:43:22 29.354 - 29.394 USB, Beacon 29.352 USB
Hamsat 31 Jul 18:47:07 18:51:18 84° 258° (WSW) 18:55:31 145.90 MHz
JAS-2 31 Jul 18:49:20 18:57:09 80° 75° (ENE) 19:04:28 435.800 - 435.900 CW/SSB, 435.910 FM
SO-67 31 Jul 18:54:38 18:56:00 12° 69° (ENE) 18:57:22 435.3500 MHz FM
STRAND 1 31 Jul 20:09:02 20:14:09 74° 102° (ESE) 20:19:13 ?
MaSat-1 31 Jul 20:22:22 20:25:26 22° 102° (ESE) 20:28:53 437.345 MHz
SO-67 31 Jul 20:25:39 20:28:44 30° 263° (W) 20:31:51 435.3500 MHz FM
JAS-2 31 Jul 20:37:41 20:42:34 18° 268° (W) 20:47:20 435.800 - 435.900 CW/SSB, 435.910 FM
SO-50 31 Jul 20:38:53 20:42:35 22° 50° (NE) 20:46:18 436.795 FM
HO-68 31 Jul 20:48:47 20:55:09 36° 65° (ENE) 21:01:31 435.675 MHz FM
RS-15 31 Jul 20:49:59 20:58:23 24° 36° (NE) 21:06:55 29.354 - 29.394 USB, Beacon 29.352 USB
UKube-1 31 Jul 21:15:48 21:19:25 26° 70° (ENE) 21:23:01 145.840 MHz, 145.915 MHz
STRAND 1 31 Jul 21:50:53 21:52:39 12° 298° (WNW) 21:54:26 ?
Oscar 11 31 Jul 21:57:18 22:01:14 36° 72° (ENE) 22:05:11 145.825 FM, Beacon 2401.500 USB
MaSat-1 31 Jul 21:58:54 22:02:30 28° 302° (WNW) 22:06:34 437.345 MHz
ISS 31 Jul 22:02:45 22:05:34 26° 131° (SE) 22:08:25 145.800 FM
SO-50 31 Jul 22:18:47 22:23:17 41° 246° (WSW) 22:27:49 436.795 FM
UOSAT-12 31 Jul 22:23:32 22:26:48 18° 48° (NE) 22:30:02 437.025 FM, 437.400 FM
FUNcube-1 31 Jul 22:27:32 22:31:12 28° 71° (ENE) 22:34:48 145.950 - 145.970 MHz USB
HO-68 31 Jul 22:36:07 22:42:42 39° 261° (W) 22:49:18 435.675 MHz FM
UKube-1 31 Jul 22:52:01 22:55:31 23° 264° (W) 22:59:03 145.840 MHz, 145.915 MHz
RS-15 31 Jul 23:01:32 23:12:40 81° 60° (ENE) 23:24:15 29.354 - 29.394 USB, Beacon 29.352 USB
Sapphire 31 Jul 23:15:15 23:17:06 12° 102° (ESE) 23:18:58 437.095 MHz 1200 baud AX-25 AFSK
Oscar 11 31 Jul 23:34:53 23:37:31 16° 266° (W) 23:40:10 145.825 FM, Beacon 2401.500 USB
ISS 31 Jul 23:39:20 23:42:13 27° 326° (NW) 23:45:08 145.800 FM
PCSat 31 Jul 23:45:21 23:49:50 27° 107° (ESE) 23:54:20 145.825 MHz
UOSAT-12 01 Aug 00:02:40 00:07:14 51° 245° (WSW) 00:11:43 437.025 FM, 437.400 FM
FUNcube-1 01 Aug 00:04:21 00:07:34 20° 265° (W) 00:10:44 145.950 - 145.970 MHz USB
Sapphire 01 Aug 00:54:25 00:59:48 74° 297° (WNW) 01:05:14 437.095 MHz 1200 baud AX-25 AFSK
RS-15 01 Aug 01:15:50 01:23:47 23° 258° (WSW) 01:32:01 29.354 - 29.394 USB, Beacon 29.352 USB
PCSat 01 Aug 01:28:08 01:33:03 35° 303° (WNW) 01:38:01 145.825 MHz
Oscar 16 01 Aug 01:48:14 01:51:02 15° 92° (E) 01:53:50 437.025 USB, Beacon 2401.1428
ITAMSAT 1 01 Aug 02:17:16 02:18:28 11° 91° (E) 02:19:40 435.822 SSB
Uribyol 2 01 Aug 02:33:46 02:37:19 19° 94° (E) 02:40:52 436.500 FM
AO-27 01 Aug 02:35:15 02:38:48 19° 94° (E) 02:42:20 436.795 MHz FM
JAS-1B 01 Aug 02:37:29 02:43:13 19° 87° (E) 02:48:23 435.800 - 435.900 CW/SSB
Sapphire 01 Aug 02:42:59 02:44:09 11° 316° (NW) 02:45:19 437.095 MHz 1200 baud AX-25 AFSK
AO-Echo 01 Aug 02:48:24 02:52:30 25° 95° (E) 02:56:28 ?
PANSAT 01 Aug 02:56:21 02:58:01 12° 160° (SSE) 02:59:42 not established
Oscar 19 01 Aug 02:56:33 03:01:43 72° 102° (ESE) 03:06:53 437.125 CW, 437.150 USB
Gurwin Techsat 1B 01 Aug 03:15:47 03:19:28 19° 94° (E) 03:23:08 435.225 FM
OPAL 01 Aug 03:18:07 03:20:00 12° 61° (ENE) 03:21:54 ?
Oscar 16 01 Aug 03:25:38 03:30:41 56° 287° (WNW) 03:35:44 437.025 USB, Beacon 2401.1428
ITAMSAT 1 01 Aug 03:53:16 03:58:25 72° 285° (WNW) 04:03:33 435.822 SSB
Uribyol 2 01 Aug 04:12:05 04:16:57 44° 288° (WNW) 04:21:49 436.500 FM
AO-27 01 Aug 04:13:35 04:18:29 44° 288° (WNW) 04:23:22 436.795 MHz FM
KITSAT 1 01 Aug 04:22:44 04:25:46 13° 99° (E) 04:28:48 435.175 FM
JAS-1B 01 Aug 04:25:44 04:34:51 78° 287° (WNW) 04:42:26 435.800 - 435.900 CW/SSB
AO-Echo 01 Aug 04:26:56 04:31:13 30° 291° (WNW) 04:35:23 ?
TMSAT-1 01 Aug 04:27:46 04:33:04 72° 102° (ESE) 04:38:20 436.925 FM
ISS 01 Aug 04:34:24 04:36:13 14° 26° (NNE) 04:38:01 145.800 FM
PANSAT 01 Aug 04:34:26 04:37:39 25° 172° (S) 04:40:52 not established
Oscar 19 01 Aug 04:38:20 04:40:24 12° 297° (WNW) 04:42:29 437.125 CW, 437.150 USB
Uosat F 01 Aug 04:48:24 04:52:13 22° 95° (E) 04:56:00 435.120 FM
OPAL 01 Aug 04:53:20 04:58:15 70° 256° (WSW) 05:03:12 ?
Gurwin Techsat 1B 01 Aug 04:54:34 04:59:37 45° 288° (WNW) 05:04:38 435.225 FM
AO-7 01 Aug 05:32:29 05:40:39 57° 103° (ESE) 05:48:44 29.400 - 29.500 MHz
ISS 01 Aug 06:09:57 06:13:19 84° 223° (SW) 06:16:40 145.800 FM
TMSAT-1 01 Aug 06:10:01 06:12:19 13° 297° (WNW) 06:14:37 436.925 FM
KITSAT 1 01 Aug 06:11:48 06:19:53 81° 115° (ESE) 06:28:01 435.175 FM
PANSAT 01 Aug 06:14:05 06:17:25 27° 185° (S) 06:20:44 not established
JAS-1B 01 Aug 06:18:40 06:23:35 16° 308° (NW) 06:28:10 435.800 - 435.900 CW/SSB
MaSat-1 01 Aug 06:19:33 06:24:20 35° 60° (ENE) 06:28:49 437.345 MHz
Uosat F 01 Aug 06:26:30 06:31:03 36° 290° (WNW) 06:35:34 435.120 FM
Hamsat 01 Aug 06:36:32 06:39:53 22° 95° (E) 06:43:14 145.90 MHz
Saudisat 1A 01 Aug 07:02:11 07:06:31 57° 116° (ESE) 07:10:51 436.775 MHz
STRAND 1 01 Aug 07:21:52 07:26:59 78° 75° (ENE) 07:32:08 ?
AO-7 01 Aug 07:26:04 07:32:56 30° 300° (WNW) 07:39:46 29.400 - 29.500 MHz
JAS-2 01 Aug 07:48:42 07:54:25 90° 282° (WNW) 07:59:39 435.800 - 435.900 CW/SSB, 435.910 FM
SO-67 01 Aug 07:52:46 07:55:24 20° 95° (E) 07:58:01 435.3500 MHz FM
PANSAT 01 Aug 07:54:41 07:57:06 16° 197° (SSW) 07:59:30 not established
MaSat-1 01 Aug 07:57:14 08:01:25 25° 257° (WSW) 08:05:20 437.345 MHz
KITSAT 1 01 Aug 08:10:00 08:16:09 23° 315° (NW) 08:22:21 435.175 FM
Hamsat 01 Aug 08:12:08 08:15:47 27° 289° (WNW) 08:19:27 145.90 MHz
PCSat 01 Aug 08:37:06 08:39:48 14° 47° (NE) 08:42:29 145.825 MHz
Saudisat 1A 01 Aug 08:43:55 08:46:27 15° 313° (NW) 08:48:59 436.775 MHz
